Погода в Окунееве

Россия / Томская область     56°46′17″N   86°59′29″E
темп.,
°C
ветер,
м/с
пор.,
м/с
влажн.,
%
обл.,
%
осадки,
мм/ч
давл.,
гПа
погр.,
м
9 мая, вс
вс901:00+3сз25836 0.0 1016143
04:00+1сз25905 0.0 1017150
07:00+3сз35795 0.0 1019274
10:00+7ссз355285 0.0 10191542
13:00+9с4543100 0.1 10191849
16:00+10с464796 0.0 10201780
19:00+9с375132 0.1 10211385
22:00+5ссв247422 0.0 102375
10 мая, пн
пн1001:00+3с28895 0.0 1024181
04:00+2ссв25955 0.0 1024110
07:00+4ссв25845 0.0 1025201
10:00+9св336013 0.0 1025985
13:00+13св234253 0.0 10241821
16:00+15св443762 0.0 10222098
19:00+14св454319 0.0 10221731
22:00+10св3763100 0.0 1022232
11 мая, вт
вт1101:00+7всв37825 0.0 1021150
04:00+5св39896 0.0 1020183
07:00+7св411805 0.0 1020344
10:00+12св585961 0.0 1019966
13:00+15св5647100 0.3 10181771
16:00+14ссв575084 0.2 10181388
19:00+14ссв464687 0.2 10181640
22:00+10с5115916 0.0 1019450
12 мая, ср
ср1201:00+6с39797 0.1 1019267
04:00+5с269080 0.2 1019175
07:00+7св368979 0.3 1020243
10:00+12св35615 0.0 1020879
13:00+14св544998 0.3 10191726
16:00+15св444239 0.0 10191802
19:00+15св14366 0.0 10192036
22:00+11в265391 0.0 1019170
13 мая, чт
чт1301:00+7в22610 0.0 102031
04:00+5вюв22662 0.0 102012
07:00+8юв12600 0.0 1020104
10:00+14ююв21370 0.0 10191358
13:00+17зюз21285 0.0 10172123
16:00+17зюз33283 0.0 10152135
19:00+17юз263150 0.0 10132304
22:00+12юз3652100 0.0 1011100